This demonstration page uses our WeatherBlox Daily Observations layout. Learn more.

Left ArrowRight Arrow

38.80484, -77.04692

Hourly Observations for December 24, 2021

Temp ( °F °C ) Dew Point ( °F °C ) Humidity (%) Winds ( mph kmh ) Pressure ( in mb ) Visibility ( mi km ) Precip ( " mm )
12:52 am 00:52 Cloudy 40 4.4 23 -5 51 51 S 16 26 30.06 1018 10 16 0.00 0.00
1:52 am 01:52 Cloudy 40 4.4 23 -5 51 51 SSW 14 22 30.06 1018 10 16 0.00 0.00
2:52 am 02:52 Cloudy 41 5 24 -4.4 51 51 S 12 19 30.05 1018 10 16 0.00 0.00
3:52 am 03:52 Cloudy 42 5.6 24 -4.4 49 49 SSW 13 20 30.03 1017 10 16 0.00 0.00
4:52 am 04:52 Cloudy 41 5 25 -3.9 53 53 SSW 10 17 30.04 1017 10 16 0.00 0.00
5:52 am 05:52 Cloudy 41 5 25 -3.9 53 53 SSW 5 7 30.05 1018 10 16 0.00 0.00
6:52 am 06:52 Cloudy 41 5 26 -3.3 55 55 SSW 9 15 30.04 1017 10 16 0.00 0.00
7:52 am 07:52 Mostly Cloudy 40 4.4 26 -3.3 58 58 SW 5 7 30.05 1018 10 16 0.00 0.00
8:52 am 08:52 Sunny 43 6.1 27 -2.8 53 53 S 5 7 30.06 1018 10 16 0.00 0.00
9:36 am 09:36 Partly Cloudy 44 6.7 29 -1.7 55 55 S 8 13 30.07 1018 10 16 0.00 0.00
9:52 am 09:52 Partly Cloudy 45 7.2 30 -1.1 56 56 S 7 11 30.08 1019 10 16 0.00 0.00
10:52 am 10:52 Sunny 48 8.9 29 -1.7 48 48 SSE 6 9 30.08 1019 10 16 0.00 0.00
11:28 am 11:28 Partly Cloudy 50 10 30 -1.1 46 46 S 6 9 30.06 1018 10 16 0.00 0.00
11:52 am 11:52 Partly Cloudy 50 10 29 -1.7 44 44 S 6 9 30.05 1018 10 16 0.00 0.00
12:52 pm 12:52 Mostly Cloudy 51 10.6 29 -1.7 43 43 S 7 11 30.01 1016 10 16 0.00 0.00
1:52 pm 13:52 Mostly Cloudy 53 11.7 29 -1.7 40 40 S 3 6 29.99 1016 10 16 0.00 0.00
2:52 pm 14:52 Cloudy 53 11.7 31 -0.6 43 43 Calm 29.98 1015 10 16 0.00 0.00
3:52 pm 15:52 Cloudy 54 12.2 30 -1.1 40 40 Calm 29.98 1015 10 16 0.00 0.00
4:52 pm 16:52 Cloudy 51 10.6 30 -1.1 44 44 Calm 29.99 1016 10 16 0.00 0.00
5:52 pm 17:52 Cloudy 48 8.9 33 0.6 56 56 ESE 5 7 29.97 1015 10 16 0.00 0.00
6:52 pm 18:52 Cloudy 49 9.4 32 0 52 52 E 3 6 29.96 1015 10 16 0.00 0.00
7:52 pm 19:52 Cloudy 48 8.9 33 0.6 56 56 ESE 3 6 29.93 1014 10 16 0.00 0.00
8:52 pm 20:52 Cloudy 49 9.4 34 1.1 56 56 S 3 6 29.91 1013 10 16 0.00 0.00
9:52 pm 21:52 Cloudy 48 8.9 35 1.7 61 61 SSW 5 7 29.88 1012 10 16 0.00 0.00
10:52 pm 22:52 Cloudy 48 8.9 37 2.8 66 66 S 7 11 29.83 1010 10 16 0.00 0.00
11:52 pm 23:52 Cloudy 50 10 35 1.7 57 57 S 6 9 29.81 1010 10 16 0.00 0.00

Powered by AerisWeather